This demonstration page uses our WeatherBlox Daily Observations layout. Learn more.

Left ArrowRight Arrow

44.89941, -97.11507

Hourly Observations for May 11, 2022

Temp ( °F °C ) Dew Point ( °F °C ) Humidity (%) Winds ( mph kmh ) Pressure ( in mb ) Visibility ( mi km ) Precip ( " mm )
12:53 am 00:53 Clear 55 12.8 44 6.7 67 67 NE 8 13 30.11 1020 10 16 0.00 0.00
1:53 am 01:53 Clear 53 11.7 45 7.2 74 74 NE 9 15 30.11 1020 10 16 0.00 0.00
2:53 am 02:53 Clear 54 12.2 44 6.7 69 69 NNE 14 22 30.09 1019 10 16 0.00 0.00
3:53 am 03:53 Clear 56 13.3 40 4.4 55 55 ENE 12 19 30.10 1019 10 16 0.00 0.00
4:53 am 04:53 Mostly Clear 56 13.3 40 4.4 55 55 ENE 10 17 30.11 1020 10 16 0.00 0.00
5:53 am 05:53 Partly Cloudy 57 13.9 39 3.9 51 51 ENE 8 13 30.11 1020 10 16 0.00 0.00
6:53 am 06:53 Partly Cloudy 58 14.4 38 3.3 48 48 E 18 30 30.09 1019 10 16 0.00 0.00
7:53 am 07:53 Sunny 60 15.6 39 3.9 46 46 E 18 30 30.05 1018 10 16 0.00 0.00
8:53 am 08:53 Cloudy 60 15.6 40 4.4 47 47 ENE 16 26 30.03 1017 10 16 0.00 0.00
9:53 am 09:53 Cloudy 62 16.7 43 6.1 50 50 E 13 20 30.04 1017 10 16 0.00 0.00
10:53 am 10:53 Sunny 64 17.8 46 7.8 52 52 E 13 20 29.99 1016 10 16 0.00 0.00
11:53 am 11:53 Mostly Cloudy 64 17.8 48 8.9 56 56 E 9 15 30.00 1016 10 16 0.00 0.00
12:00 pm 12:00 Mostly Cloudy 63 17.2 49 9.4 60 60 E 14 22 29.96 1015 10 16 0.00 0.00
12:45 pm 12:45 Mostly Sunny 67 19.4 55 12.8 66 66 ESE 14 22 29.91 1013 10 16 0.00 0.00
12:53 pm 12:53 Mostly Sunny 68 20 55 12.8 63 63 E 13 20 29.95 1014 10 16 0.00 0.00
1:15 pm 13:15 Mostly Cloudy 66 18.9 56 13.3 70 70 E 9 15 29.89 1012 10 16 0.00 0.00
1:53 pm 13:53 Cloudy 70 21.1 60 15.6 71 71 SE 16 26 29.92 1013 10 16 0.00 0.00
2:04 pm 14:04 Mostly Cloudy 70 21.1 60 15.6 71 71 SE 17 28 29.86 1011 10 16 0.00 0.00
2:53 pm 14:53 Cloudy 74 23.3 62 16.7 67 67 SE 17 28 29.89 1012 10 16 0.00 0.00
3:53 pm 15:53 Cloudy 75 23.9 64 17.8 69 69 SE 14 22 29.86 1011 10 16 0.00 0.00
4:53 pm 16:53 Cloudy 70 21.1 62 16.7 76 76 ESE 10 17 29.85 1011 10 16 0.00 0.00
5:27 pm 17:27 Cloudy with Thunderstorms 68 20 64 17.8 87 87 S 5 7 29.82 1010 6 10 0.02 0.51
5:53 pm 17:53 Cloudy 68 20 65 18.3 90 90 E 6 9 29.85 1011 7 11 0.02 0.51
6:53 pm 18:53 Mostly Cloudy 67 19.4 63 17.2 87 87 SE 8 13 29.85 1011 10 16 0.00 0.00
7:53 pm 19:53 Cloudy 66 18.9 63 17.2 90 90 SE 8 13 29.86 1011 10 16 0.00 0.00
8:19 pm 20:19 Partly Cloudy 65 18.3 63 17.2 93 93 SSE 7 11 29.85 1011 10 16 0.00 0.00
8:25 pm 20:25 Mostly Cloudy 65 18.3 63 17.2 93 93 SSE 3 6 29.85 1011 10 16 0.00 0.00
8:53 pm 20:53 Cloudy 65 18.3 63 17.2 93 93 SE 7 11 29.89 1012 10 16 0.00 0.00
9:14 pm 21:14 Cloudy 65 18.3 62 16.7 90 90 ESE 8 13 29.86 1011 10 16 0.00 0.00
9:51 pm 21:51 Partly Cloudy 64 18 63 17 94 94 ESE 7 11 29.87 1011 10 16 0.00 0.00
9:53 pm 21:53 Mostly Clear 64 17.8 62 16.7 93 93 ESE 7 11 29.90 1012 10 16 0.00 0.00
10:53 pm 22:53 Clear 63 17.2 61 16.1 93 93 E 7 11 29.89 1012 10 16 0.00 0.00
11:53 pm 23:53 Clear 63 17.2 59 15 87 87 SE 8 13 29.88 1012 10 16 0.00 0.00

Powered by AerisWeather